Location: Newark
(27.9675°N, 86.8869°E)
Time: 10:14:48
(UTC+00:00)

ISS - Pass Details

Date: 20 September 2019
Orbit: 411 x 421 km, 51.6° (Epoch: 23 October)

Event Time Altitude Azimuth Distance (km) Brightness Sun altitude
Rises 12:59:15 0° 241° (WSW) 2,330 1.0 -11.2°
Reaches altitude 10° 13:01:29 10° 253° (WSW) 1,471 0.1 -11.7°
Maximum altitude 13:04:27 30° 317° (NW) 754 -1.9 -12.4°
Drops below altitude 10° 13:07:26 10° 21° (NNE) 1,474 -1.1 -13.0°
Enters shadow 13:09:17 - 31° (NNE) 2,185 -0.3 -13.4°
